Mason City, IA

4:32 AM CDT on March 23, 2017 (GMT -0500)
Mason City Municipal

Weather History for KMCW - November, 2010

Change the Weather History Date:

Tuesday, November 23, 2010

  Actual Average Record
Temperature  
Mean Temperature 17 °F 29 °F  
Max Temperature 24 °F 38 °F 58 °F (1931)
Min Temperature 10 °F 20 °F -9 °F (1898)
Degree Days  
Heating Degree Days 48 36  
Month to date heating degree days 675  
Since 1 July heating degree days 1413  
Cooling Degree Days 0 0  
Month to date cooling degree days 0  
Year to date cooling degree days 616  
Moisture  
Dew Point 12 °F    
Average Humidity 79    
Maximum Humidity 85    
Minimum Humidity 71    
Precipitation  
Precipitation 0.00 in 0.06 in 2.11 in (1931)
Month to date precipitation 1.50  
Year to date precipitation 33.58  
Snow  
Snow 0.00 in 0.20 in 4.00 in (1977)
Month to date snowfall 2.6  
Since 1 July snowfall 3.0  
Since 1 September snowfall 3.0  
Snow Depth -    
Sea Level Pressure  
Sea Level Pressure 30.23 in    
Wind  
Wind Speed 12 mph (NW)    
Max Wind Speed 18 mph    
Max Gust Speed 26 mph    
Visibility 10 miles    
Events      
T = Trace of Precipitation, MM = Missing Value Source: NWS Daily Summary

Daily Weather History Graph

Daily Weather History Graph

Search for Another Location

Airport or City:

Trip Planner

Search our weather history database for the weather conditions in past years. The results will help you decide how hot, cold, wet, or windy it might be!

Date:

Astronomy

Nov. 23, 2010 Rise Set
Actual Time 7:16 AM CST 4:43 PM CST
Civil Twilight 6:44 AM CST 5:14 PM CST
Nautical Twilight 6:09 AM CST 5:49 PM CST
Astronomical Twilight 5:35 AM CST 6:23 PM CST
Moon 6:22 PM CST 9:17 AM CST
Length of Visible Light 10h 29m
Length of Day
9h 26m
Waning Gibbous, 96% of the Moon is Illuminated
Nov 23
Waning Gibbous
Nov 28
Last Quarter
Dec 5
New
Dec 13
First Quarter
Dec 21
Full

Hourly Weather History & Observations

Time (CST) Temp. Windchill Dew Point Humidity Pressure Visibility Wind Dir Wind Speed Gust Speed Precip Events Conditions
12:53 AM 17.1 °F 1.0 °F 10.9 °F 77% 30.09 in 10.0 mi WNW 18.4 mph - N/A   Scattered Clouds
1:09 AM 17.6 °F 1.7 °F 10.4 °F 73% 30.06 in 10.0 mi WNW 18.4 mph 26.5 mph N/A   Mostly Cloudy
1:53 AM 15.1 °F -0.6 °F 10.0 °F 80% 30.11 in 10.0 mi West 16.1 mph - 0.00 in   Mostly Cloudy
2:22 AM 14.0 °F -1.4 °F 8.6 °F 79% 30.08 in 10.0 mi WNW 15.0 mph 24.2 mph N/A   Scattered Clouds
2:53 AM 14.0 °F -0.8 °F 9.0 °F 80% 30.15 in 10.0 mi WNW 13.8 mph - N/A   Clear
3:53 AM 12.9 °F -2.2 °F 7.0 °F 77% 30.18 in 10.0 mi WNW 13.8 mph - N/A   Clear
4:53 AM 12.0 °F -2.0 °F 7.0 °F 80% 30.20 in 10.0 mi WNW 11.5 mph - N/A   Clear
5:53 AM 12.0 °F -4.0 °F 6.1 °F 77% 30.21 in 10.0 mi WNW 15.0 mph - N/A   Clear
6:53 AM 10.9 °F -4.7 °F 6.1 °F 81% 30.23 in 10.0 mi WNW 13.8 mph - N/A   Clear
7:53 AM 12.0 °F -3.4 °F 7.0 °F 80% 30.25 in 10.0 mi NW 13.8 mph - N/A   Clear
8:53 AM 14.0 °F -0.8 °F 8.1 °F 77% 30.28 in 10.0 mi WNW 13.8 mph - N/A   Clear
9:53 AM 16.0 °F 4.4 °F 10.0 °F 77% 30.29 in 10.0 mi NW 9.2 mph - N/A   Clear
10:53 AM 18.0 °F 7.7 °F 10.9 °F 74% 30.31 in 10.0 mi NW 8.1 mph - N/A   Partly Cloudy
11:53 AM 19.9 °F 11.1 °F 12.9 °F 74% 30.31 in 10.0 mi WNW 6.9 mph - N/A   Partly Cloudy
12:53 PM 21.2 °F 13.6 °F 14.0 °F 74% 30.26 in 10.0 mi NW 5.8 mph - N/A   Partly Cloudy
1:53 PM 23.0 °F 15.8 °F 15.8 °F 74% 30.26 in 10.0 mi WNW 5.8 mph - N/A   Clear
2:53 PM 23.0 °F - 15.1 °F 72% 30.30 in 10.0 mi Calm Calm - N/A   Clear
3:53 PM 24.1 °F - 16.0 °F 71% 30.30 in 10.0 mi Calm Calm - N/A   Clear
4:53 PM 21.9 °F - 15.1 °F 75% 30.30 in 10.0 mi Calm Calm - N/A   Clear
5:53 PM 19.9 °F 12.1 °F 16.0 °F 85% 30.30 in 10.0 mi ENE 5.8 mph - N/A   Clear
6:53 PM 19.0 °F 11.1 °F 15.1 °F 85% 30.30 in 10.0 mi SE 5.8 mph - N/A   Clear
7:53 PM 19.0 °F 11.1 °F 15.1 °F 85% 30.28 in 10.0 mi East 5.8 mph - N/A   Clear
8:53 PM 19.0 °F 11.1 °F 15.1 °F 85% 30.27 in 10.0 mi East 5.8 mph - N/A   Clear
9:53 PM 19.0 °F 10.0 °F 15.1 °F 85% 30.26 in 10.0 mi ESE 6.9 mph - N/A   Clear
10:53 PM 19.0 °F 8.2 °F 15.1 °F 85% 30.23 in 10.0 mi East 9.2 mph - N/A   Clear
11:53 PM 19.0 °F 6.8 °F 15.1 °F 85% 30.21 in 10.0 mi ESE 11.5 mph - N/A   Clear